Flag for Germany Weather past 2 weeks in Wunstorf, Lower Saxony, Germany

Now
27 °F

Chilly.


Feels Like: 23 °F
Forecast: 22 / 35 °F
Wind: 3 mph from West

Location: Wunstorf Airport

Current Time: Dec 28, 2014 at 1:23:01 PM

Latest Report: Dec 28, 2014 at 12:20 PM


Visibility: 6 mi

Pressure: 30.30 "Hg

Humidity: 80%

Dew point: 21 °F

Location of WunstorfLocation

Historic Weather in Wunstorf — Graph

°F

Wunstorf temperature yesterday

Maximum temperature yesterday: 32 °F (at 12:20 PM)
Minimum temperature yesterday: 27 °F (at 8:20 PM)
Average temperature yesterday: 29 °F

Past Weeks' High & Low Weather Summary

 TemperatureHumidityPressure
High54 °F (Dec 18, 5:20 PM)100% (Dec 14, 7:20 AM)30.36 "Hg (Dec 14, 7:20 AM)
Low19 °F (Dec 28, 7:20 AM)61% (Dec 25, 2:20 PM)29.53 "Hg (Dec 17, 2:20 PM)
Average41 °F87%29.92 "Hg
* Reported Dec 13 11:20 AM — Dec 28 11:20 AM, Wunstorf, Weather by CustomWeather, © 2014

Note: Actual official high and low records may vary slightly from our data, if they occured in-between our weather recording intervals... More about our weather records

Advertising

Wunstorf weather history for previous 24 hours

 ConditionsComfort  
Time TempWeatherWind HumidityBarometerVisibility
11:20 AM
Dec 28
25 °FCold.6 mph80%30.30 "HgN/A
10:20 AM23 °FCold.2 mph86%30.27 "Hg5 mi
9:20 AM21 °FCold.2 mph86%30.24 "Hg4 mi
8:20 AM21 °FCold.3 mph86%30.18 "Hg5 mi
7:20 AM19 °FCold.5 mph93%30.15 "Hg5 mi
6:20 AM21 °FCold.8 mph86%30.12 "Hg5 mi
5:20 AM21 °FCold.9 mph93%30.07 "Hg6 mi
4:20 AM21 °FCold.8 mph93%30.04 "Hg6 mi
3:20 AM23 °FCold.9 mph86%30.01 "Hg6 mi
2:20 AM23 °FCold.9 mph86%29.98 "Hg6 mi
1:20 AM25 °FCold.12 mph80%29.95 "Hg6 mi
12:20 AM27 °FChilly.13 mph80%29.89 "Hg6 mi
11:20 PM
Dec 27
27 °FChilly.13 mph80%29.89 "HgN/A
10:20 PM27 °FChilly.15 mph80%29.83 "Hg6 mi
9:20 PM27 °FChilly.16 mph80%29.83 "Hg6 mi
8:20 PM27 °FChilly.16 mph86%29.77 "Hg6 mi
7:20 PM28 °FChilly.15 mph80%29.74 "Hg6 mi
6:20 PM28 °FChilly.13 mph80%29.74 "HgN/A
5:20 PM30 °FChilly.15 mph75%29.71 "HgN/A
4:20 PM30 °FChilly.15 mph75%29.68 "HgN/A
3:20 PM30 °FChilly.15 mph75%29.68 "HgN/A
2:20 PM32 °FChilly.13 mph75%29.68 "HgN/A
1:20 PM32 °FChilly.17 mph80%29.68 "Hg6 mi
Weather by CustomWeather, © 2014

See weather overviewHow to use our weather pages